Flag for U.S.A. Weather past 2 weeks in Billings, Montana, U.S.A.

Now
90 °F

Partly sunny.


Feels Like: 87 °F
Forecast: 56 / 94 °F
Wind: 12 mph from Southeast

Location: Billings Logan International Airport

Current Time: Aug 3, 2015 at 4:02:36 PM

Latest Report: Aug 3, 2015 at 2:53 PM


Visibility: 10 mi

Pressure: 29.81 "Hg (26.82 "Hg at 946m altitude)

Humidity: 22%

Dew point: 46 °F

Location of BillingsLocation

Historic Weather in Billings — Graph

°F

Billings temperature yesterday

Maximum temperature yesterday: 86 °F (at 3:53 PM)
Minimum temperature yesterday: 63 °F (at 5:53 AM)
Average temperature yesterday: 76 °F

Past Weeks' High & Low Weather Summary

 TemperatureHumidityPressure
High98 °F (Aug 1, 3:53 PM)90% (Jul 27, 4:53 PM)30.22 "Hg (Jul 27, 4:53 PM)
Low53 °F (Jul 27, 11:53 PM)7% (Aug 1, 1:53 PM)29.61 "Hg (Jul 22, 3:53 PM)
Average74 °F37%29.92 "Hg
* Reported Jul 19 2:53 PM — Aug 3 2:53 PM, Billings, Weather by CustomWeather, © 2015

Note: Actual official high and low records may vary slightly from our data, if they occured in-between our weather recording intervals... More about our weather records

Advertising

Billings weather history for previous 24 hours

 ConditionsComfort  
Time TempWeatherWind HumidityBarometerVisibility
2:53 PM
Mon, Aug 3
90 °FPartly sunny.12 mph22%29.81 "Hg10 mi
1:53 PM90 °FPartly sunny.14 mph23%29.83 "Hg10 mi
12:53 PM83 °FPartly sunny.8 mph32%29.86 "Hg10 mi
11:53 AM78 °FPartly sunny.6 mph36%29.89 "Hg10 mi
10:53 AM74 °FPartly sunny.5 mph40%29.90 "Hg10 mi
9:53 AM73 °FPartly sunny.5 mph41%29.91 "Hg10 mi
8:53 AM68 °FScattered clouds.7 mph47%29.92 "Hg10 mi
7:53 AM66 °FScattered clouds.3 mph49%29.92 "Hg10 mi
6:53 AM63 °FPassing clouds.6 mph54%29.92 "Hg10 mi
5:53 AM62 °FPassing clouds.6 mph54%29.91 "Hg10 mi
4:53 AM62 °FClear.8 mph54%29.89 "Hg10 mi
3:53 AM64 °FClear.9 mph50%29.90 "Hg10 mi
2:53 AM65 °FClear.8 mph47%29.89 "Hg10 mi
1:53 AM66 °FClear.8 mph45%29.90 "Hg10 mi
12:53 AM67 °FClear.8 mph44%29.92 "Hg10 mi
11:53 PM
Sun, Aug 2
70 °FClear.9 mph38%29.93 "Hg10 mi
10:53 PM72 °FPassing clouds.8 mph34%29.92 "Hg10 mi
9:53 PM75 °FPassing clouds.9 mph31%29.91 "Hg10 mi
8:53 PM79 °FScattered clouds.8 mph27%29.89 "Hg10 mi
7:53 PM82 °FPartly sunny.10 mph24%29.89 "Hg10 mi
6:53 PM85 °FPartly sunny.10 mph21%29.88 "Hg10 mi
5:53 PM86 °FPartly sunny.13 mph21%29.89 "Hg10 mi
4:53 PM86 °FPartly sunny.13 mph22%29.90 "Hg10 mi
Weather by CustomWeather, © 2015

See weather overviewHow to use our weather pages